📊 Raw Sensor Data

Showing records 33626 to 33650 of 84,789 total

ID Distance (ft) Battery V Battery A Int Temp (°F) Int Humid (%) Ext Temp (°F) Solar V RSSI SNR Time Stamp
51176 14.9 3.97 -5 61 45 62 0.10 -74 8 09/05/2025 11:30 PM
51175 14.8 3.98 -5 61 45 62 0.00 -73 7 09/05/2025 11:15 PM
51174 14.7 3.98 -5 61 45 62 0.00 -72 8 09/05/2025 11:00 PM
51173 14.6 3.98 -5 62 45 63 0.00 -73 8 09/05/2025 10:45 PM
51172 14.7 3.98 -5 62 45 63 0.00 -73 8 09/05/2025 10:30 PM
51171 14.7 3.98 -5 62 46 63 0.00 -72 7 09/05/2025 10:15 PM
51170 14.7 3.98 -5 63 46 63 0.00 -74 8 09/05/2025 10:00 PM
51169 14.7 3.98 -5 64 46 64 0.00 -73 8 09/05/2025 09:45 PM
51168 14.7 3.92 -5 64 46 64 0.00 -73 8 09/05/2025 09:30 PM
51167 14.7 3.93 -5 65 47 65 0.10 -72 8 09/05/2025 09:15 PM
51166 14.7 3.93 -5 65 47 66 0.00 -72 8 09/05/2025 09:00 PM
51165 14.7 3.93 -5 66 48 66 0.00 -73 8 09/05/2025 08:45 PM
51164 14.7 3.93 -5 67 49 67 0.00 -74 8 09/05/2025 08:30 PM
51163 14.7 3.98 -5 68 50 68 0.00 -72 8 09/05/2025 08:15 PM
51162 14.7 3.93 -5 69 52 68 0.00 -74 8 09/05/2025 08:00 PM
51161 14.7 3.93 -5 70 53 69 1.40 -74 8 09/05/2025 07:45 PM
51160 14.7 3.92 -9 73 55 70 3.30 -73 8 09/05/2025 07:30 PM
51159 14.7 3.94 0 79 53 74 4.60 -73 7 09/05/2025 07:15 PM
51158 14.7 4.01 5 83 51 77 4.50 -74 7 09/05/2025 07:00 PM
51157 14.8 3.99 17 86 51 79 4.50 -74 7 09/05/2025 06:45 PM
51156 14.8 4.02 13 88 51 81 4.50 -73 7 09/05/2025 06:30 PM
51155 14.8 4.07 60 90 50 83 4.50 -73 8 09/05/2025 06:15 PM
51154 14.9 4.13 7 92 49 82 5.10 -74 8 09/05/2025 06:00 PM
51153 14.9 3.97 0 95 48 86 5.10 -74 7 09/05/2025 05:45 PM
51152 13.9 3.97 7 96 48 86 5.10 -74 8 09/05/2025 05:30 PM